Fergus Falls, MN

2:56 AM CST on November 20, 2019 (GMT -0600)
Fergus Falls Municipal-Mickelson

Weather History for KFFM - September, 2019

Change the Weather History Date:

Saturday, September 14, 2019

  Actual Average Record
Temperature  
Mean Temperature 58 °F -  
Max Temperature 69 °F 70 °F 90 °F (1969)
Min Temperature 46 °F 46 °F 29 °F (1956)
Degree Days  
Heating Degree Days 8    
Growing Degree Days 8 (Base 50)    
Moisture  
Dew Point 55 °F    
Average Humidity 88    
Maximum Humidity 100    
Minimum Humidity 68    
Precipitation  
Precipitation 0.00 in - - ()
Sea Level Pressure  
Sea Level Pressure 29.98 in    
Wind  
Wind Speed 5 mph ()    
Max Wind Speed 12 mph    
Max Gust Speed 17 mph    
Visibility 10.0 miles    
Events      
Averages and records for this station are not official NWS values.
T = Trace of Precipitation, MM = Missing Value Source: Averaged Metar Reports

Daily Weather History Graph

Daily Weather History Graph

Search for Another Location

Airport or City:

Astronomy

Sep. 14, 2019 Rise Set
Actual Time 7:01 AM CDT 7:38 PM CDT
Civil Twilight 6:30 AM CDT 8:08 PM CDT
Nautical Twilight 5:54 AM CDT 8:44 PM CDT
Astronomical Twilight 5:17 AM CDT 9:21 PM CDT
Moon 8:20 PM CDT (9/14) 7:13 AM CDT (9/14)
Length of Visible Light 13h 37m
Length of Day
12h 37m
Full, 100% of the Moon is Illuminated
Sep 14
Full
Sep 21
Last Quarter
Sep 28
New
Oct 5
First Quarter
Oct 13
Full

Hourly Weather History & Observations

Time (CDT) Temp. Windchill Dew Point Humidity Pressure Visibility Wind Dir Wind Speed Gust Speed Precip Events Conditions
12:16 AM 48.2 °F - 46.4 °F 93% 30.05 in 10.0 mi South 3.5 mph - N/A   Clear
12:35 AM 48.2 °F - 46.4 °F 93% 30.05 in 10.0 mi South 4.6 mph - N/A   Clear
12:36 AM 48.2 °F - 46.4 °F 93% 30.05 in 10.0 mi South 4.6 mph - N/A   Clear
12:55 AM 48.2 °F - 46.4 °F 93% 30.05 in 10.0 mi South 3.5 mph - N/A   Clear
12:56 AM 48.2 °F - 46.4 °F 93% 30.05 in 10.0 mi South 3.5 mph - N/A   Clear
1:15 AM 46.4 °F 44.3 °F 44.6 °F 93% 30.06 in 10.0 mi South 4.6 mph - N/A   Clear
1:19 AM 46.4 °F 44.3 °F 44.6 °F 93% 30.06 in 10.0 mi South 4.6 mph - N/A   Clear
1:38 AM 48.2 °F - 46.4 °F 93% 30.06 in 10.0 mi SSE 3.5 mph - N/A   Clear
1:55 AM 48.2 °F - 46.4 °F 93% 30.06 in 10.0 mi SSE 3.5 mph - N/A   Clear
2:15 AM 48.2 °F - 48.2 °F 100% 30.05 in 10.0 mi SSE 3.5 mph - N/A   Clear
2:16 AM 48.2 °F - 48.2 °F 100% 30.05 in 10.0 mi SSE 3.5 mph - N/A   Clear
2:35 AM 46.4 °F 45.2 °F 46.4 °F 100% 30.05 in 10.0 mi SSE 3.5 mph - N/A   Clear
2:57 AM 46.4 °F 43.5 °F 46.4 °F 100% 30.05 in 10.0 mi SSE 5.8 mph - N/A   Clear
3:15 AM 46.4 °F 44.3 °F 46.4 °F 100% 30.05 in 10.0 mi SSE 4.6 mph - N/A   Clear
3:35 AM 46.4 °F 43.5 °F 46.4 °F 100% 30.05 in 10.0 mi SSE 5.8 mph - N/A   Clear
3:36 AM 46.4 °F 43.5 °F 46.4 °F 100% 30.05 in 10.0 mi SSE 5.8 mph - N/A   Clear
3:55 AM 46.4 °F 43.5 °F 46.4 °F 100% 30.05 in 10.0 mi SSE 5.8 mph - N/A   Clear
4:18 AM 48.2 °F - 48.2 °F 100% 30.04 in 10.0 mi SE 4.6 mph - N/A   Clear
4:36 AM 46.4 °F 43.5 °F 46.4 °F 100% 30.05 in 10.0 mi SSE 5.8 mph - N/A   Scattered Clouds
4:55 AM 46.4 °F 43.5 °F 46.4 °F 100% 30.05 in 10.0 mi SSE 5.8 mph - N/A   Scattered Clouds
5:15 AM 46.4 °F 44.3 °F 46.4 °F 100% 30.05 in 10.0 mi SSE 4.6 mph - N/A   Clear
5:16 AM 46.4 °F 44.3 °F 46.4 °F 100% 30.06 in 10.0 mi SSE 4.6 mph - N/A   Clear
5:35 AM 46.4 °F 43.5 °F 46.4 °F 100% 30.05 in 10.0 mi SSE 5.8 mph - N/A   Clear
5:39 AM 48.2 °F - 48.2 °F 100% 30.05 in 10.0 mi SSE 5.8 mph - N/A   Clear
5:58 AM 48.2 °F - 48.2 °F 100% 30.04 in 10.0 mi SE 5.8 mph - N/A   Clear
6:15 AM 48.2 °F - 48.2 °F 100% 30.04 in 10.0 mi SE 6.9 mph - N/A   Clear
6:35 AM 48.2 °F - 48.2 °F 100% 30.04 in 10.0 mi SE 5.8 mph - N/A   Clear
6:36 AM 48.2 °F - 48.2 °F 100% 30.04 in 10.0 mi SE 5.8 mph - N/A   Clear
6:55 AM 48.2 °F - 48.2 °F 100% 30.03 in 10.0 mi ESE 6.9 mph - N/A   Clear
6:56 AM 48.2 °F - 48.2 °F 100% 30.03 in 10.0 mi ESE 6.9 mph - N/A   Clear
7:19 AM 50.0 °F - 48.2 °F 94% 30.03 in 10.0 mi ESE 6.9 mph - N/A   Clear
7:36 AM 50.0 °F - 48.2 °F 94% 30.03 in 10.0 mi ESE 6.9 mph - N/A   Scattered Clouds
7:55 AM 51.8 °F - 50.0 °F 94% 30.02 in 10.0 mi East 4.6 mph - N/A   Scattered Clouds
8:15 AM 51.8 °F - 50.0 °F 94% 30.02 in 10.0 mi ESE 6.9 mph - N/A   Scattered Clouds
8:16 AM 51.8 °F - 50.0 °F 94% 30.02 in 10.0 mi ESE 6.9 mph - N/A   Scattered Clouds
8:35 AM 53.6 °F - 51.8 °F 94% 30.02 in 10.0 mi SE 5.8 mph - N/A   Scattered Clouds
8:39 AM 53.6 °F - 51.8 °F 94% 30.01 in 10.0 mi SE 6.9 mph - N/A   Scattered Clouds
8:58 AM 55.4 °F - 51.8 °F 88% 30.01 in 10.0 mi SE 6.9 mph - N/A   Scattered Clouds
9:15 AM 55.4 °F - 51.8 °F 88% 30.01 in 10.0 mi SE 6.9 mph - N/A   Mostly Cloudy
9:35 AM 57.2 °F - 53.6 °F 88% 30.00 in 10.0 mi SE 9.2 mph - N/A   Scattered Clouds
9:36 AM 57.2 °F - 53.6 °F 88% 30.00 in 10.0 mi SE 9.2 mph - N/A   Scattered Clouds
9:55 AM 57.2 °F - 53.6 °F 88% 30.00 in 10.0 mi SE 9.2 mph - N/A   Clear
9:56 AM 57.2 °F - 53.6 °F 88% 30.00 in 10.0 mi SE 9.2 mph - N/A   Clear
10:18 AM 59.0 °F - 53.6 °F 82% 29.99 in 10.0 mi SE 11.5 mph 17.3 mph N/A   Clear
10:37 AM 59.0 °F - 53.6 °F 82% 29.99 in 10.0 mi SE 9.2 mph - N/A   Clear
10:55 AM 60.8 °F - 53.6 °F 77% 29.99 in 10.0 mi SE 10.4 mph - N/A   Clear
10:56 AM 60.8 °F - 53.6 °F 77% 29.99 in 10.0 mi SE 9.2 mph - N/A   Clear
11:15 AM 60.8 °F - 53.6 °F 77% 29.98 in 10.0 mi SE 10.4 mph - N/A   Clear
11:16 AM 60.8 °F - 53.6 °F 77% 29.98 in 10.0 mi SE 10.4 mph - N/A   Clear
11:35 AM 62.6 °F - 55.4 °F 77% 29.98 in 10.0 mi SE 8.1 mph - N/A   Clear
11:39 AM 62.6 °F - 53.6 °F 72% 29.98 in 10.0 mi SE 8.1 mph - N/A   Clear
11:58 AM 62.6 °F - 53.6 °F 72% 29.97 in 10.0 mi SE 8.1 mph - N/A   Clear
12:15 PM 64.4 °F - 55.4 °F 73% 29.97 in 10.0 mi SSE 10.4 mph - N/A   Clear
12:35 PM 64.4 °F - 55.4 °F 73% 29.96 in 10.0 mi SSE 11.5 mph - N/A   Clear
12:36 PM 64.4 °F - 55.4 °F 73% 29.96 in 10.0 mi SSE 10.4 mph - N/A   Clear
12:55 PM 64.4 °F - 55.4 °F 73% 29.95 in 10.0 mi SE 11.5 mph - N/A   Clear
1:19 PM 66.2 °F - 55.4 °F 68% 29.95 in 10.0 mi SSE 9.2 mph - N/A   Clear
1:36 PM 66.2 °F - 55.4 °F 68% 29.94 in 10.0 mi SSE 9.2 mph - N/A   Scattered Clouds
1:55 PM 64.4 °F - 57.2 °F 77% 29.96 in 10.0 mi Calm Calm - N/A   Scattered Clouds
1:56 PM 66.2 °F - 57.2 °F 73% 29.96 in 10.0 mi Calm Calm - N/A   Scattered Clouds
2:15 PM 66.2 °F - 57.2 °F 73% 29.95 in 10.0 mi SE 3.5 mph - N/A   Scattered Clouds
2:16 PM 66.2 °F - 57.2 °F 73% 29.95 in 10.0 mi SE 3.5 mph - N/A   Scattered Clouds
2:35 PM 66.2 °F - 57.2 °F 73% 29.94 in 10.0 mi SE 8.1 mph - N/A   Scattered Clouds
2:39 PM 66.2 °F - 57.2 °F 73% 29.94 in 10.0 mi SE 8.1 mph - N/A   Scattered Clouds
2:57 PM 66.2 °F - 57.2 °F 73% 29.93 in 10.0 mi SE 6.9 mph - N/A   Clear
3:15 PM 68.0 °F - 57.2 °F 68% 29.92 in 10.0 mi ESE 8.1 mph - N/A   Clear
3:35 PM 68.0 °F - 57.2 °F 68% 29.92 in 10.0 mi SE 10.4 mph - N/A   Clear
3:55 PM 68.0 °F - 59.0 °F 73% 29.93 in 10.0 mi SE 5.8 mph - N/A   Clear
3:56 PM 68.0 °F - 59.0 °F 73% 29.93 in 10.0 mi SE 5.8 mph - N/A   Clear
4:18 PM 68.0 °F - 59.0 °F 73% 29.90 in 10.0 mi SE 11.5 mph - N/A   Clear
4:36 PM 68.0 °F - 60.8 °F 78% 29.91 in 10.0 mi SSE 9.2 mph - N/A   Clear
4:55 PM 68.0 °F - 60.8 °F 78% 29.91 in 10.0 mi SSE 6.9 mph - N/A   Clear
4:56 PM 68.0 °F - 60.8 °F 78% 29.91 in 10.0 mi SSE 6.9 mph - N/A   Clear
5:15 PM 69.8 °F - 60.8 °F 73% 29.91 in 10.0 mi South 5.8 mph - N/A   Clear
5:16 PM 69.8 °F - 60.8 °F 73% 29.91 in 10.0 mi South 5.8 mph - N/A   Clear
5:35 PM 69.8 °F - 62.6 °F 78% 29.91 in 10.0 mi South 4.6 mph - N/A   Clear
5:39 PM 69.8 °F - 62.6 °F 78% 29.91 in 10.0 mi South 4.6 mph - N/A   Clear
5:58 PM 69.8 °F - 62.6 °F 78% 29.91 in 10.0 mi SSE 5.8 mph - N/A   Clear
6:15 PM 69.8 °F - 62.6 °F 78% 29.91 in 10.0 mi South 3.5 mph - N/A   Clear
6:35 PM 68.0 °F - 62.6 °F 83% 29.90 in 10.0 mi SSE 5.8 mph - N/A   Clear
6:36 PM 68.0 °F - 62.6 °F 83% 29.90 in 10.0 mi SSE 5.8 mph - N/A   Clear
6:55 PM 68.0 °F - 62.6 °F 83% 29.90 in 10.0 mi SSE 3.5 mph - N/A   Clear
7:19 PM 66.2 °F - 62.6 °F 88% 29.90 in 10.0 mi SSE 4.6 mph - N/A   Clear
7:36 PM 66.2 °F - 62.6 °F 88% 29.90 in 10.0 mi South 3.5 mph - N/A   Clear
7:56 PM 64.4 °F - 62.6 °F 94% 29.91 in 10.0 mi SSE 5.8 mph - N/A   Clear
8:15 PM 64.4 °F - 62.6 °F 94% 29.91 in 10.0 mi SSE 4.6 mph - N/A   Clear
8:16 PM 64.4 °F - 62.6 °F 94% 29.91 in 10.0 mi SSE 4.6 mph - N/A   Clear
8:35 PM 62.6 °F - 60.8 °F 94% 29.91 in 10.0 mi SSE 5.8 mph - N/A   Clear
8:57 PM 62.6 °F - 60.8 °F 94% 29.92 in 10.0 mi SSE 5.8 mph - N/A   Clear
9:15 PM 64.4 °F - 62.6 °F 94% 29.92 in 10.0 mi SSE 5.8 mph - N/A   Clear
9:35 PM 62.6 °F - 60.8 °F 94% 29.92 in 10.0 mi SSE 4.6 mph - N/A   Clear
9:36 PM 62.6 °F - 60.8 °F 94% 29.92 in 10.0 mi SSE 4.6 mph - N/A   Clear
9:55 PM 64.4 °F - 62.6 °F 94% 29.93 in 10.0 mi Calm Calm - N/A   Clear
9:56 PM 64.4 °F - 62.6 °F 94% 29.93 in 10.0 mi Calm Calm - N/A   Clear
10:18 PM 64.4 °F - 62.6 °F 94% 29.94 in 10.0 mi SE 3.5 mph - N/A   Clear
10:37 PM 62.6 °F - 60.8 °F 94% 29.94 in 10.0 mi SSE 4.6 mph - N/A   Clear
10:55 PM 62.6 °F - 60.8 °F 94% 29.94 in 10.0 mi SSE 4.6 mph - N/A   Clear
10:56 PM 62.6 °F - 60.8 °F 94% 29.94 in 10.0 mi SSE 4.6 mph - N/A   Clear
11:15 PM 62.6 °F - 62.6 °F 100% 29.94 in 10.0 mi SE 3.5 mph - N/A   Clear
11:16 PM 62.6 °F - 62.6 °F 100% 29.94 in 10.0 mi SE 4.6 mph - N/A   Clear
11:35 PM 60.8 °F - 60.8 °F 100% 29.94 in 10.0 mi SSE 5.8 mph - N/A   Clear
11:57 PM 60.8 °F - 60.8 °F 100% 29.94 in 10.0 mi SSE 4.6 mph - N/A   Clear